This is the latest recevied weather packets stored in our database for station/object WC4PEM-1. If no packets are shown the sender has not sent any weather packets the latest 10 day(s).
| Time | Temp. | Humidity | Pressure | Rain* | Wind** | Luminosity | Snow |
|---|---|---|---|---|---|---|---|
| 1777144130 | 30° C | 46% | 1009.5 hPa | 0 mm | - | 313 W/m² | - |
| 1777143830 | 29.44° C | 47% | 1009.5 hPa | 0 mm | - | 963 W/m² | - |
| 1777143532 | 30° C | 45% | 1009.4 hPa | 0 mm | - | 216 W/m² | - |
| 1777143230 | 30.56° C | 44% | 1009.7 hPa | 0 mm | - | 318 W/m² | - |
| 1777142930 | 30.56° C | 43% | 1009.9 hPa | 0 mm | - | 255 W/m² | - |
| 1777142630 | 30.56° C | 44% | 1010.1 hPa | 0 mm | - | 294 W/m² | - |
| 1777142330 | 30.56° C | 45% | 1010.1 hPa | 0 mm | - | 1076 W/m² | - |
| 1777142030 | 30° C | 45% | 1010.1 hPa | 0 mm | - | 411 W/m² | - |
| 1777141731 | 30° C | 47% | 1010.2 hPa | 0 mm | - | 411 W/m² | - |
| 1777141431 | 30° C | 47% | 1010.2 hPa | 0 mm | - | 348 W/m² | - |
| 1777141130 | 30.56° C | 46% | 1010.2 hPa | 0 mm | - | 1183 W/m² | - |
| 1777140831 | 30.56° C | 44% | 1010.3 hPa | 0 mm | - | 568 W/m² | - |
| 1777140531 | 30.56° C | 43% | 1010.4 hPa | 0 mm | - | 1081 W/m² | - |
| 1777140267 | 31.11° C | 44% | 1010.5 hPa | 0 mm | - | 1013 W/m² | - |
| 1777140231 | 31.11° C | 44% | 1010.5 hPa | 0 mm | - | 1013 W/m² | - |
| 1777139931 | 31.67° C | 43% | 1010.5 hPa | 0 mm | - | 995 W/m² | - |
| 1777139631 | 31.11° C | 44% | 1010.5 hPa | 0 mm | - | 995 W/m² | - |
| 1777139331 | 31.67° C | 44% | 1010.5 hPa | 0 mm | - | 1037 W/m² | - |
| 1777139031 | 31.11° C | 43% | 1010.6 hPa | 0 mm | - | 1048 W/m² | - |
| 1777138731 | 31.11° C | 45% | 1010.5 hPa | 0 mm | - | 1021 W/m² | - |
| 1777138431 | 31.67° C | 44% | 1010.6 hPa | 0 mm | - | 1025 W/m² | - |
| 1777138131 | 31.11° C | 48% | 1010.6 hPa | 0 mm | - | 1011 W/m² | - |
| 1777137831 | 30.56° C | 47% | 1010.6 hPa | 0 mm | - | 1020 W/m² | - |
| 1777137531 | 30.56° C | 47% | 1010.6 hPa | 0 mm | - | 1046 W/m² | - |
| 1777137231 | 30° C | 50% | 1010.6 hPa | 0 mm | - | 1037 W/m² | - |
* Rain latest hour (hover to see other rain measurements)
** Current wind speed in m/s (hover to see current wind gust speed)